Lewistown, MT

9:30 PM MST on February 25, 2018 (GMT -0700)
Lewistown Municipal

Weather History for KLWT - May, 2013

Change the Weather History Date:

Monday, May 27, 2013

  Actual Average Record
Temperature  
Mean Temperature 49 °F 53 °F  
Max Temperature 59 °F 65 °F 91 °F (1934)
Min Temperature 39 °F 41 °F 23 °F (1910)
Degree Days  
Heating Degree Days 16 12  
Month to date heating degree days 367 421  
Since 1 July heating degree days 7780 7928  
Cooling Degree Days 0 0  
Month to date cooling degree days 3 0  
Year to date cooling degree days 3 0  
Moisture  
Dew Point 43 °F    
Average Humidity 74    
Maximum Humidity 100    
Minimum Humidity 47    
Precipitation  
Precipitation 0.01 in 0.11 in 2.17 in (1955)
Month to date precipitation 3.07 2.38  
Year to date precipitation 6.43 5.79  
Snow  
Snow 0.00 in - - ()
Snow Depth 0.00 in    
Sea Level Pressure  
Sea Level Pressure 29.82 in    
Wind  
Wind Speed 8 mph (West)    
Max Wind Speed 25 mph    
Max Gust Speed 32 mph    
Visibility 10 miles    
Events Rain    
T = Trace of Precipitation, MM = Missing Value Source: NWS Daily Summary

Daily Weather History Graph

Daily Weather History Graph

Search for Another Location

Airport or City:

Trip Planner

Search our weather history database for the weather conditions in past years. The results will help you decide how hot, cold, wet, or windy it might be!

Date:

Astronomy

May. 27, 2013 Rise Set
Actual Time 5:29 AM MDT 9:00 PM MDT
Civil Twilight 4:51 AM MDT 9:39 PM MDT
Nautical Twilight 4:01 AM MDT 10:29 PM MDT
Astronomical Twilight 2:54 AM MDT 11:37 PM MDT
Moon 11:37 PM MDT (5/27) 8:14 AM MDT (5/27)
Length of Visible Light 16h 47m
Length of Day
15h 31m
Waning Gibbous, 90% of the Moon is Illuminated
May 27
Waning Gibbous
May 31
Last Quarter
Jun 8
New
Jun 16
First Quarter
Jun 23
Full

Hourly Weather History & Observations

Time (MDT) Temp. Windchill Dew Point Humidity Pressure Visibility Wind Dir Wind Speed Gust Speed Precip Events Conditions
12:01 AM 44.6 °F - 42.8 °F 93% 29.92 in 7.0 mi Calm Calm - 0.00 in Rain Light Rain
12:26 AM 46.4 °F 43.5 °F 42.8 °F 87% 29.93 in 10.0 mi South 5.8 mph - 0.00 in Rain Light Rain
12:54 AM 46.0 °F 41.9 °F 44.1 °F 93% 29.87 in 10.0 mi SSE 8.1 mph - 0.00 in   Overcast
1:14 AM 46.4 °F 45.2 °F 44.6 °F 93% 29.91 in 10.0 mi SSE 3.5 mph - N/A   Overcast
1:43 AM 46.4 °F 44.3 °F 44.6 °F 93% 29.90 in 10.0 mi SW 4.6 mph - N/A   Scattered Clouds
1:54 AM 45.0 °F 43.5 °F 44.1 °F 97% 29.85 in 10.0 mi SSW 3.5 mph - N/A   Partly Cloudy
2:54 AM 44.1 °F 40.8 °F 43.0 °F 96% 29.82 in 10.0 mi East 5.8 mph - N/A   Clear
3:54 AM 41.0 °F 37.1 °F 41.0 °F 100% 29.84 in 10.0 mi SSW 5.8 mph - N/A   Clear
4:54 AM 39.9 °F 37.8 °F 39.9 °F 100% 29.83 in 10.0 mi ESE 3.5 mph - N/A   Clear
5:54 AM 39.9 °F 35.8 °F 39.0 °F 97% 29.86 in 10.0 mi SE 5.8 mph - N/A   Clear
6:54 AM 43.0 °F - 42.1 °F 97% 29.84 in 10.0 mi Calm Calm - N/A   Clear
7:54 AM 48.0 °F - 45.0 °F 89% 29.82 in 10.0 mi Calm Calm - N/A   Clear
8:54 AM 50.0 °F - 46.0 °F 86% 29.82 in 10.0 mi WNW 3.5 mph - N/A   Clear
9:54 AM 54.0 °F - 44.1 °F 69% 29.81 in 10.0 mi NW 6.9 mph - N/A   Clear
10:54 AM 55.9 °F - 45.0 °F 67% 29.81 in 10.0 mi NW 9.2 mph - N/A   Mostly Cloudy
11:54 AM 55.9 °F - 45.0 °F 67% 29.81 in 10.0 mi NW 9.2 mph - N/A   Mostly Cloudy
12:54 PM 53.1 °F - 46.0 °F 77% 29.81 in 10.0 mi WNW 9.2 mph - 0.01 in Rain Light Rain
1:54 PM 57.9 °F - 43.0 °F 58% 29.79 in 10.0 mi WNW 12.7 mph 19.6 mph 0.00 in   Mostly Cloudy
2:54 PM 55.9 °F - 43.0 °F 62% 29.81 in 10.0 mi NW 17.3 mph 24.2 mph N/A   Scattered Clouds
3:54 PM 57.9 °F - 42.1 °F 56% 29.79 in 10.0 mi WNW 18.4 mph 25.3 mph N/A   Mostly Cloudy
4:54 PM 57.9 °F - 42.1 °F 56% 29.80 in 10.0 mi NW 17.3 mph 25.3 mph N/A   Mostly Cloudy
5:54 PM 59.0 °F - 39.9 °F 49% 29.78 in 10.0 mi NW 17.3 mph 27.6 mph N/A   Clear
6:54 PM 57.9 °F - 39.9 °F 51% 29.78 in 10.0 mi NW 11.5 mph 19.6 mph N/A   Clear
7:54 PM 55.9 °F - 42.1 °F 60% 29.76 in 10.0 mi WNW 6.9 mph - N/A   Clear
8:54 PM 51.1 °F - 43.0 °F 74% 29.77 in 10.0 mi NW 5.8 mph - N/A   Clear
9:54 PM 46.0 °F 42.5 °F 41.0 °F 83% 29.77 in 10.0 mi West 6.9 mph - N/A   Clear
10:54 PM 46.0 °F 42.5 °F 41.0 °F 83% 29.77 in 10.0 mi SSW 6.9 mph - N/A   Clear
11:54 PM 44.1 °F 38.6 °F 39.9 °F 85% 29.77 in 10.0 mi SW 10.4 mph - N/A   Clear